TimeEDT,TemperatureF,Dew PointF,Humidity,Sea Level PressureIn,VisibilityMPH,Wind Direction,Wind SpeedMPH,Gust SpeedMPH,PrecipitationIn,Events,Conditions,WindDirDegrees,DateUTC
12:55 AM,57.0,52.3,84,30.08,10.0,Calm,Calm,-,N/A,,Clear,0,2013-05-10 04:55:00
1:15 AM,56.5,52.0,85,30.08,10.0,Calm,Calm,-,N/A,,Clear,0,2013-05-10 05:15:00
1:35 AM,56.1,52.5,88,30.08,10.0,Calm,Calm,-,N/A,,Clear,0,2013-05-10 05:35:00
1:55 AM,55.9,52.5,88,30.08,10.0,Calm,Calm,-,N/A,,Clear,0,2013-05-10 05:55:00
2:15 AM,54.9,51.1,87,30.07,10.0,Calm,Calm,-,N/A,,Clear,0,2013-05-10 06:15:00
2:35 AM,53.6,50.4,89,30.07,10.0,Calm,Calm,-,N/A,,Clear,0,2013-05-10 06:35:00
2:55 AM,53.2,50.5,91,30.06,10.0,Calm,Calm,-,N/A,,Clear,0,2013-05-10 06:55:00
3:15 AM,52.5,49.6,90,30.07,10.0,Calm,Calm,-,N/A,,Clear,0,2013-05-10 07:15:00
3:35 AM,54.1,51.1,89,30.07,10.0,Calm,Calm,-,N/A,,Clear,0,2013-05-10 07:35:00
3:55 AM,52.3,50.2,92,30.07,10.0,Calm,Calm,-,N/A,,Clear,0,2013-05-10 07:55:00
4:15 AM,53.4,51.8,94,30.07,7.0,Calm,Calm,-,N/A,,Clear,0,2013-05-10 08:15:00
4:35 AM,50.9,48.2,90,30.06,7.0,Calm,Calm,-,N/A,,Clear,0,2013-05-10 08:35:00
4:55 AM,51.1,49.5,94,30.07,5.0,Calm,Calm,-,N/A,,Clear,0,2013-05-10 08:55:00
5:15 AM,51.3,49.5,94,30.07,10.0,Calm,Calm,-,N/A,,Clear,0,2013-05-10 09:15:00
5:35 AM,50.2,47.8,92,30.07,7.0,Calm,Calm,-,N/A,,Clear,0,2013-05-10 09:35:00
5:55 AM,49.6,47.7,93,30.07,5.0,Calm,Calm,-,N/A,,Clear,0,2013-05-10 09:55:00
6:15 AM,50.5,48.7,94,30.06,10.0,Calm,Calm,-,N/A,,Clear,0,2013-05-10 10:15:00
6:35 AM,51.1,48.7,92,30.07,10.0,Calm,Calm,-,N/A,,Clear,0,2013-05-10 10:35:00
6:55 AM,51.8,49.3,91,30.07,10.0,Calm,Calm,-,N/A,,Clear,0,2013-05-10 10:55:00
7:15 AM,52.2,50.2,93,30.07,10.0,Calm,Calm,-,N/A,,Clear,0,2013-05-10 11:15:00
7:35 AM,54.0,51.6,92,30.07,10.0,Calm,Calm,-,N/A,,Scattered Clouds,0,2013-05-10 11:35:00
7:55 AM,56.3,52.7,88,30.07,10.0,Calm,Calm,-,N/A,,Clear,0,2013-05-10 11:55:00
8:15 AM,58.1,53.1,83,30.07,10.0,Calm,Calm,-,N/A,,Scattered Clouds,0,2013-05-10 12:15:00
8:35 AM,60.6,54.5,80,30.07,10.0,Calm,Calm,-,N/A,,Mostly Cloudy,0,2013-05-10 12:35:00
8:55 AM,64.6,54.9,71,30.07,10.0,South,3.5,-,N/A,,Overcast,190,2013-05-10 12:55:00
9:15 AM,65.7,55.6,70,30.07,10.0,Calm,Calm,-,N/A,,Mostly Cloudy,0,2013-05-10 13:15:00
9:35 AM,67.3,55.9,67,30.07,10.0,WSW,3.5,-,N/A,,Mostly Cloudy,240,2013-05-10 13:35:00
9:55 AM,70.0,56.1,61,30.07,10.0,SSW,3.5,-,N/A,,Scattered Clouds,210,2013-05-10 13:55:00
10:35 AM,73.6,57.2,56,30.05,10.0,SSW,3.5,-,N/A,,Clear,210,2013-05-10 14:35:00
10:55 AM,75.6,57.2,53,30.05,10.0,Calm,Calm,-,N/A,,Clear,0,2013-05-10 14:55:00
11:15 AM,77.2,57.2,50,30.04,10.0,South,3.5,-,N/A,,Clear,190,2013-05-10 15:15:00
11:35 AM,78.6,58.8,50,30.03,10.0,SSW,4.6,-,N/A,,Clear,210,2013-05-10 15:35:00
11:55 AM,79.7,55.9,44,30.03,10.0,WSW,8.1,16.1,N/A,,Clear,240,2013-05-10 15:55:00
12:15 PM,80.6,55.0,41,30.02,10.0,SW,10.4,-,N/A,,Clear,230,2013-05-10 16:15:00
12:55 PM,81.7,54.9,40,30.02,10.0,SW,11.5,-,N/A,,Clear,220,2013-05-10 16:55:00
1:15 PM,81.7,53.2,37,30.01,10.0,WSW,9.2,-,N/A,,Clear,240,2013-05-10 17:15:00
1:35 PM,82.8,54.9,38,30.00,10.0,SW,8.1,-,N/A,,Clear,230,2013-05-10 17:35:00
1:55 PM,82.9,49.5,31,29.99,10.0,SW,11.5,20.7,N/A,,Clear,230,2013-05-10 17:55:00
2:15 PM,83.3,48.2,29,29.98,10.0,South,12.7,18.4,N/A,,Scattered Clouds,190,2013-05-10 18:15:00
2:35 PM,82.8,50.0,32,29.97,10.0,SW,11.5,21.9,N/A,,Clear,220,2013-05-10 18:35:00
2:55 PM,81.5,52.0,36,29.97,10.0,SSW,9.2,-,N/A,,Scattered Clouds,210,2013-05-10 18:55:00
3:15 PM,82.4,50.9,33,29.96,10.0,SSW,10.4,17.3,N/A,,Scattered Clouds,210,2013-05-10 19:15:00
3:35 PM,83.3,51.1,33,29.95,10.0,South,11.5,-,N/A,,Scattered Clouds,190,2013-05-10 19:35:00
3:55 PM,82.6,54.9,38,29.94,10.0,South,8.1,-,N/A,,Scattered Clouds,170,2013-05-10 19:55:00
4:15 PM,81.9,54.7,39,29.94,10.0,South,9.2,-,N/A,,Scattered Clouds,170,2013-05-10 20:15:00
4:35 PM,81.5,55.8,41,29.93,10.0,South,9.2,-,N/A,,Scattered Clouds,180,2013-05-10 20:35:00
4:55 PM,81.0,54.5,40,29.94,10.0,South,11.5,17.3,N/A,,Scattered Clouds,170,2013-05-10 20:55:00
5:15 PM,80.2,55.6,43,29.93,10.0,South,9.2,-,N/A,,Scattered Clouds,170,2013-05-10 21:15:00
5:35 PM,80.2,55.2,42,29.92,10.0,South,9.2,-,N/A,,Scattered Clouds,190,2013-05-10 21:35:00
5:55 PM,79.9,54.1,41,29.92,10.0,South,10.4,16.1,N/A,,Clear,190,2013-05-10 21:55:00
6:15 PM,78.8,55.2,44,29.92,10.0,South,10.4,-,N/A,,Scattered Clouds,190,2013-05-10 22:15:00
6:35 PM,77.9,55.0,45,29.93,10.0,SSW,8.1,-,N/A,,Scattered Clouds,210,2013-05-10 22:35:00
6:55 PM,73.9,58.8,59,29.95,7.0,WSW,15.0,-,0.01,Rain,Rain,250,2013-05-10 22:55:00
7:15 PM,68.0,62.1,81,29.95,7.0,SSW,5.8,-,0.06,Rain-Thunderstorm,Light Thunderstorms and Rain,210,2013-05-10 23:15:00
7:35 PM,67.3,62.4,84,29.94,10.0,SW,6.9,-,0.06,,Overcast,220,2013-05-10 23:35:00
7:55 PM,66.7,62.4,86,29.94,10.0,SE,3.5,-,0.06,,Light Drizzle,140,2013-05-10 23:55:00
8:15 PM,66.4,62.6,88,29.95,10.0,West,5.8,-,N/A,,Overcast,280,2013-05-11 00:15:00
8:35 PM,66.0,62.4,88,30.01,4.0,SW,13.8,20.7,0.09,Rain-Thunderstorm,Heavy Thunderstorms and Rain,230,2013-05-11 00:35:00
8:55 PM,64.9,61.5,89,30.00,7.0,Calm,Calm,-,0.14,Rain,Heavy Rain,0,2013-05-11 00:55:00
9:15 PM,64.6,61.9,91,29.99,7.0,SE,6.9,-,0.04,Rain,Rain,140,2013-05-11 01:15:00
9:35 PM,63.5,60.8,91,29.97,7.0,SE,4.6,-,0.08,Rain,Light Rain,140,2013-05-11 01:35:00
9:55 PM,63.1,60.3,90,29.98,10.0,South,4.6,-,0.08,,Scattered Clouds,170,2013-05-11 01:55:00
10:15 PM,63.1,60.3,90,29.98,10.0,South,4.6,-,N/A,Thunderstorm,Mostly Cloudy,190,2013-05-11 02:15:00
10:35 PM,63.0,60.1,90,29.98,10.0,South,5.8,-,N/A,,Mostly Cloudy,180,2013-05-11 02:35:00
10:55 PM,62.8,59.7,90,29.97,10.0,South,5.8,-,N/A,,Overcast,180,2013-05-11 02:55:00
11:15 PM,63.0,59.2,87,29.96,10.0,SSW,5.8,-,N/A,,Mostly Cloudy,210,2013-05-11 03:15:00
11:35 PM,62.6,59.2,89,29.95,10.0,SSW,4.6,-,N/A,,Mostly Cloudy,210,2013-05-11 03:35:00
11:55 PM,62.1,59.2,90,29.95,10.0,SW,3.5,-,N/A,,Mostly Cloudy,220,2013-05-11 03:55:00